Theta_e
330 331 336 330 330 330 334 336 327 331 334 332 333 330 333 336 339 335 335 336 332 322 330 333 330 333 327 330 326 334 332 331 334 335 335 336 335 334 333 332 331 330 329 328 326 324 321 319 320
334 336 330 325 334 337 335 331 331 329 336 332 331 336 337 342 335 333 336 335 327 328 332 334 327 336 325 321 324 330 332 332 330 329 329 328 327 330 330 330 329 329 329 329 327 323 318 315 315
330 332 326 330 334 338 337 331 328 331 332 329 335 333 337 340 333 334 336 334 326 331 333 335 327 332 331 330 334 333 333 329 324 323 321 321 320 318 318 324 324 329 328 330 328 324 321 319 318
326 324 321 331 338 337 335 332 329 330 327 330 333 338 334 334 335 336 336 330 326 330 332 334 330 327 324 323 326 324 321 321 320 319 320 321 321 319 318 317 317 324 326 329 328 326 321 319 318
324 321 328 332 333 335 333 328 326 327 326 329 331 340 339 336 336 336 334 327 327 333 334 335 333 331 324 323 325 323 324 324 321 319 321 318 316 317 319 317 315 317 322 326 325 326 322 320 318
322 322 331 333 331 331 328 325 324 325 325 333 335 337 337 335 336 334 329 325 327 331 333 333 334 331 324 326 327 326 327 327 322 320 318 317 316 315 317 317 317 316 315 316 319 320 318 317 316
324 327 331 331 331 331 330 322 324 323 328 329 332 338 336 334 334 331 327 325 327 330 331 332 331 331 325 329 330 330 331 331 327 322 321 322 321 320 320 320 321 321 321 320 320 319 319 320 321
322 324 332 332 332 333 326 324 320 323 323 327 330 336 338 334 333 331 328 327 328 328 328 330 330 328 326 328 329 331 332 331 332 325 324 325 325 324 324 323 323 322 323 323 323 323 323 323 323
319 325 330 332 332 329 323 326 321 319 328 326 328 330 331 335 333 330 330 332 332 331 329 329 329 329 330 331 331 331 333 333 333 329 325 325 326 327 327 326 327 327 327 326 326 326 326 326 325
322 324 326 327 325 325 325 325 323 325 328 331 331 332 334 334 333 332 331 331 330 329 328 325 325 325 326 328 329 329 331 332 332 330 326 325 324 323 325 325 326 328 328 328 327 327 326 326 326
324 325 323 323 323 324 325 325 320 325 328 327 331 333 333 334 334 333 332 332 332 331 327 324 323 322 322 323 324 326 328 329 330 328 326 326 325 324 322 322 323 328 328 328 327 327 326 326 327
328 325 322 322 321 321 324 324 324 322 323 321 329 333 333 334 334 333 333 333 333 332 329 324 324 323 322 321 321 321 322 323 323 323 323 324 324 323 323 325 326 326 326 327 327 327 327 327 328
328 326 324 322 321 320 321 324 324 323 329 330 333 333 334 334 333 334 335 334 334 333 330 328 329 330 329 330 330 331 330 330 329 327 326 327 327 326 327 327 327 327 327 327 327 327 328 329 329
327 325 325 323 322 321 325 325 324 324 332 334 334 333 333 333 333 333 334 335 334 332 331 333 335 334 334 333 333 333 333 333 332 331 331 331 330 330 330 330 330 330 330 329 329 328 329 329 330
327 327 324 322 322 323 323 327 326 325 332 335 334 332 331 330 333 333 335 335 335 335 335 334 334 335 335 335 335 334 334 334 333 333 332 332 332 332 332 332 332 332 332 331 331 331 331 331 331
329 327 330 324 322 324 325 328 326 328 334 334 333 331 332 330 332 334 335 336 336 336 336 336 335 336 336 335 335 335 334 334 334 333 333 333 333 333 333 333 333 333 332 331 331 331 331 330 329
328 332 329 327 319 322 326 328 324 329 332 333 331 331 332 330 331 333 335 336 336 336 336 336 336 335 335 335 335 335 334 334 334 333 334 334 334 333 334 333 332 333 333 332 331 331 330 330 328
332 332 331 327 322 321 326 327 322 326 330 331 330 329 331 331 330 332 333 334 334 334 334 335 335 335 334 334 334 334 334 334 333 333 333 333 332 332 331 331 331 330 330 329 328 326 324 321 319
328 330 330 327 320 322 324 325 324 321 327 328 328 328 329 329 315 323 329 330 331 331 332 332 332 332 332 333 333 333 333 333 331 328 326 326 326 327 326 323 323 322 320 319 319 318 317 316 316
329 329 330 325 322 322 321 325 321 320 324 325 327 325 326 314 312 312 317 321 323 323 324 326 327 326 328 329 329 329 328 324 321 319 319 319 319 319 319 318 317 316 315 314 314 315 316 315 316
329 330 328 328 322 322 322 324 321 319 319 318 321 321 319 312 311 309 309 311 313 314 315 317 317 316 316 317 318 319 320 319 316 315 316 316 316 316 316 316 315 314 313 312 312 313 313 313 313
332 326 327 325 327 332 325 334 323 319 319 316 314 317 309 308 308 308 308 309 310 311 312 312 312 312 312 313 314 315 315 314 311 311 310 311 313 313 313 313 312 312 310 309 308 309 309 310 311
329 325 326 326 327 328 328 332 331 319 319 317 312 309 307 307 308 308 308 308 309 310 309 309 309 310 310 311 311 311 310 309 307 305 304 304 303 303 303 303 303 303 303 302 302 302 303 304 305
323 321 320 321 325 332 329 331 332 323 319 316 310 308 308 308 309 307 307 307 307 307 308 308 308 306 307 307 306 306 305 304 304 303 303 302 301 301 301 301 301 300 300 300 300 300 299 299 300
323 326 324 326 326 330 324 329 331 321 321 315 311 310 310 309 309 308 306 306 306 306 306 305 306 304 304 304 304 304 303 303 302 301 300 300 300 299 298 298 298 298 298 298 298 298 298 297 297
325 324 325 328 327 322 318 328 327 319 314 312 311 310 310 308 307 306 306 305 305 305 305 305 305 304 303 303 302 302 301 301 300 299 298 297 297 297 296 297 297 297 296 296 296 296 295 295 295
322 324 315 314 308 318 321 318 309 308 316 313 312 311 310 308 307 306 305 304 304 304 303 304 303 302 302 301 300 300 299 298 297 297 297 296 296 296 296 296 295 295 295 294 294 294 293 293 293
320 316 322 317 323 322 312 310 312 309 311 318 314 313 310 309 307 306 304 304 304 303 302 302 301 300 299 298 298 297 297 296 296 296 296 295 295 295 295 294 294 293 293 292 292 292 292 291 291
318 318 318 316 316 320 319 317 306 308 309 314 318 316 312 308 305 303 303 303 302 302 301 300 299 298 297 297 296 296 295 295 295 295 294 293 292 292 292 291 291 290 290 289 289 289 289 288 288
317 317 314 319 318 313 316 312 306 306 307 309 308 309 307 306 304 303 302 301 301 298 297 297 296 297 296 295 295 294 294 294 293 292 291 291 290 290 289 289 288 288 287 287 287 287 287 286 286
Wind_Speed
7 7 2 2 3 4 3 3 1 3 2 1 2 4 6 3 2 3 6 9 23 25 23 18 16 15 14 16 17 14 12 12 13 13 12 12 10 8 8 8 9 9 9 9 9 9 9 8 8
1 2 2 2 3 2 4 4 2 2 5 6 5 2 5 2 3 7 13 13 25 25 23 20 18 16 16 17 17 13 10 9 9 9 8 7 6 6 5 5 6 5 6 6 7 7 8 8 7
0 1 3 3 2 3 3 3 3 2 4 2 4 5 2 1 2 13 5 24 26 25 24 21 19 18 18 17 15 13 10 8 6 5 4 3 3 2 2 2 2 5 3 4 5 5 6 6 5
1 3 3 3 3 4 4 2 5 5 1 4 4 6 3 3 13 8 21 28 27 24 22 21 19 17 16 15 12 10 8 6 4 3 3 2 2 2 2 1 1 2 1 1 2 3 4 4 5
3 2 3 1 3 3 2 2 9 5 2 2 1 4 3 2 7 17 25 27 27 24 22 21 19 16 14 13 11 9 8 5 4 3 3 3 2 2 1 2 3 1 1 2 3 4 6 7 8
3 2 3 2 4 2 1 4 6 4 3 2 5 4 2 5 19 25 25 25 24 24 21 20 18 15 13 12 10 8 7 4 3 4 4 3 2 2 1 1 1 2 2 4 5 6 8 8 9
2 3 3 2 3 4 2 7 6 6 6 4 8 4 2 5 17 26 24 23 22 22 20 18 17 14 12 11 10 8 6 3 1 3 3 1 1 1 1 2 3 4 4 5 6 8 9 10 11
2 3 1 2 1 3 2 1 4 6 4 2 3 5 5 7 23 23 22 21 21 20 19 18 17 15 14 12 11 9 8 8 4 3 3 3 2 2 3 4 5 6 7 8 9 11 12 13 14
2 3 2 3 1 3 4 1 2 2 6 1 2 5 3 28 26 24 21 20 19 19 18 17 17 16 15 13 11 10 10 10 8 6 5 6 5 6 6 7 7 7 8 10 12 13 15 16 17
3 2 6 2 2 4 4 3 6 3 4 1 3 6 22 29 27 20 18 17 21 20 19 18 17 16 15 13 12 12 11 12 11 8 7 8 8 9 9 9 9 9 10 11 12 14 15 16 17
1 4 2 2 3 3 4 3 5 7 3 6 8 13 18 23 19 18 16 20 24 20 18 17 16 15 15 15 13 12 12 11 11 10 10 10 10 11 12 13 13 14 14 15 15 15 15 17 18
4 6 3 6 3 5 4 3 3 7 5 3 10 18 19 18 18 18 19 22 22 20 19 16 15 15 14 12 12 11 11 10 11 10 10 11 12 12 11 13 13 14 15 16 17 19 18 19 19
5 3 4 6 8 7 5 6 5 5 4 7 16 15 15 14 16 17 23 21 19 20 19 18 16 14 13 12 11 10 9 9 9 10 11 11 13 14 14 14 15 16 16 17 19 19 21 22 22
4 6 4 5 6 4 4 3 3 2 5 8 14 13 13 12 17 16 21 21 20 19 19 17 16 14 12 12 12 11 10 9 9 9 10 11 13 14 16 17 18 18 18 19 21 22 23 25 25
3 3 3 4 4 5 5 2 5 4 6 9 9 8 9 10 17 20 24 22 20 18 16 18 16 15 15 13 12 11 11 12 12 12 12 14 15 16 17 19 20 21 20 21 21 22 23 25 25
4 3 4 3 3 2 4 7 3 7 11 9 8 6 8 8 17 21 22 21 19 17 16 15 15 14 15 15 14 13 13 13 14 14 15 15 16 17 18 20 21 22 23 23 23 23 24 24 25
5 5 5 2 1 1 3 6 2 4 7 8 7 6 6 6 9 18 19 20 17 16 17 16 15 15 14 15 15 14 14 14 14 16 16 17 18 19 19 20 20 20 21 21 20 20 18 22 22
10 7 5 6 2 2 2 5 1 3 6 8 7 7 6 6 6 15 15 15 15 15 16 14 15 15 14 13 14 14 14 13 12 12 13 12 12 13 15 12 11 12 13 13 13 14 16 18 20
16 7 6 4 1 3 5 5 4 5 4 7 7 7 6 6 2 3 8 11 11 9 10 10 9 9 11 11 12 12 11 9 6 4 5 6 7 8 9 8 10 11 12 13 14 16 18 21 17
8 7 6 3 1 2 1 7 1 4 5 6 8 7 7 5 4 5 8 8 7 7 5 6 5 4 4 6 6 2 1 5 7 7 7 8 8 8 9 10 10 11 11 11 12 13 13 11 12
9 15 11 4 3 3 2 5 3 2 2 5 5 5 6 7 7 5 11 14 14 14 12 11 9 7 5 4 3 3 4 5 5 8 9 11 9 9 10 10 11 11 12 13 13 12 11 11 11
9 4 7 12 7 5 1 4 5 4 5 3 4 7 8 9 6 7 12 15 14 14 13 11 9 8 8 7 5 6 8 8 9 9 10 10 9 11 10 10 10 12 12 13 14 13 12 11 12
2 9 8 3 7 5 2 1 1 5 5 5 5 5 7 8 8 7 10 15 14 16 16 15 14 15 15 14 13 13 14 12 10 9 9 10 11 12 12 13 13 13 14 14 15 15 14 11 12
11 10 9 6 2 6 7 10 4 4 5 6 6 7 2 8 7 9 14 17 17 17 18 19 18 18 16 16 17 16 15 13 11 11 12 13 12 14 15 15 15 14 14 16 16 15 14 14 13
5 10 2 2 2 2 1 7 4 3 2 2 13 11 7 4 9 3 12 18 20 18 17 17 19 20 14 15 16 15 14 13 13 13 13 14 15 17 17 15 16 16 15 15 15 15 15 15 15
10 5 4 5 5 2 3 5 2 4 6 7 7 9 11 0 6 1 7 20 21 19 16 16 17 18 13 14 15 14 13 13 13 13 14 14 15 15 14 15 15 16 17 17 17 17 16 17 17
4 4 2 5 3 3 3 5 4 5 5 10 9 9 9 7 4 3 8 10 20 19 14 15 16 16 14 14 13 15 14 13 14 14 13 13 13 14 15 16 17 18 18 18 19 19 20 19 19
2 5 2 2 4 2 1 3 3 4 8 7 9 10 7 7 7 8 6 13 18 17 15 15 15 15 15 15 14 14 14 12 12 11 12 12 13 15 16 17 18 19 20 20 20 20 19 20 21
4 5 4 2 2 3 3 4 2 4 8 13 13 15 17 12 9 7 12 14 16 16 15 15 14 14 14 13 12 12 11 10 10 11 11 13 14 16 18 19 20 21 21 21 20 21 22 24 25
4 6 5 3 3 1 1 2 2 2 6 7 8 10 9 10 8 10 16 18 16 15 14 14 13 13 12 11 10 10 9 9 10 13 14 16 18 18 19 19 19 20 20 20 22 23 25 26 27
Wind_Direction
69 104 128 17 53 66 276 274 287 128 101 359 83 132 158 79 146 189 143 155 155 151 153 153 151 137 134 145 141 130 120 114 111 111 110 105 99 87 81 75 73 71 72 67 68 70 70 72 73
260 0 22 84 94 56 273 284 248 186 149 123 75 65 53 92 83 125 140 156 156 151 153 157 152 141 141 138 138 140 131 119 116 114 111 107 107 111 103 92 79 64 69 64 63 58 56 58 57
292 18 78 99 102 176 219 251 133 47 147 85 95 49 98 122 88 149 163 157 156 155 157 157 154 146 141 140 139 141 138 134 130 125 120 118 122 119 113 118 112 101 66 58 50 42 35 38 38
314 17 35 98 227 232 199 208 136 129 314 69 121 68 48 320 148 168 152 157 158 156 161 162 160 154 148 149 152 153 146 138 135 141 143 141 145 146 160 185 196 185 156 86 349 351 13 5 1
49 48 73 82 257 269 253 221 141 143 112 64 82 152 72 49 140 151 154 159 160 157 161 164 164 161 154 151 150 149 141 127 125 132 147 150 165 167 154 86 85 99 181 230 296 282 325 330 331
31 88 77 203 252 257 205 181 133 116 124 167 81 95 127 147 146 154 158 162 164 160 163 164 170 168 163 158 156 154 152 137 135 150 157 151 142 154 153 80 18 352 325 309 308 304 313 321 328
70 73 209 221 266 300 172 165 140 141 141 224 147 89 90 162 161 157 160 163 165 166 165 168 173 176 174 169 170 167 172 187 194 182 175 165 121 45 334 320 325 329 324 322 316 314 316 319 322
95 87 264 260 276 306 7 222 130 136 171 122 134 165 168 178 163 158 159 161 166 171 173 175 177 180 184 186 187 191 192 215 238 244 230 240 255 273 290 300 305 307 309 313 313 314 315 316 317
40 60 224 257 178 349 2 11 358 75 113 96 82 139 180 156 161 153 154 159 168 174 180 182 185 189 194 200 204 208 216 226 239 251 248 254 267 279 288 292 296 303 305 307 307 309 311 311 310
77 145 219 247 14 313 289 221 164 108 119 119 86 52 132 147 154 150 158 161 174 178 185 192 195 196 200 205 212 218 226 230 236 248 258 267 277 280 283 287 285 287 291 295 300 301 304 307 311
191 212 244 270 294 327 308 303 166 130 229 206 182 152 150 152 157 159 168 170 179 182 187 192 197 200 201 204 209 218 224 232 244 256 270 276 283 291 294 296 298 298 302 302 303 303 302 306 311
209 250 241 286 6 340 309 320 245 182 221 239 156 156 156 163 169 167 175 181 180 187 192 193 196 205 208 209 215 222 234 243 254 266 272 275 280 285 290 290 298 299 304 303 308 310 310 309 311
195 229 241 270 305 283 289 255 228 238 358 107 129 147 160 165 168 178 185 186 187 190 194 200 200 208 213 219 222 229 236 257 274 276 279 286 290 293 294 295 297 299 302 304 306 306 307 307 308
197 200 259 280 271 268 271 314 139 172 121 121 141 154 160 168 170 176 187 189 195 196 198 201 207 211 215 222 232 245 258 266 276 283 288 288 294 297 299 301 302 303 308 310 308 309 308 308 309
158 224 285 228 234 239 179 291 225 134 137 142 147 157 155 168 179 184 194 194 199 202 206 210 214 219 228 234 244 252 265 271 278 288 292 292 294 296 299 301 305 309 309 306 305 306 306 307 312
177 162 229 289 199 259 143 269 224 154 147 160 152 164 170 171 189 199 199 203 208 211 213 217 222 229 235 243 249 257 266 275 283 290 295 296 296 297 298 299 303 308 307 307 304 302 303 306 308
213 214 179 280 85 264 181 252 1 169 158 165 164 177 182 163 185 204 207 210 214 221 224 227 228 233 239 247 251 260 270 277 286 292 297 301 301 301 298 299 305 308 309 311 309 306 306 305 310
204 217 184 179 236 163 223 251 90 175 185 172 165 183 186 182 203 209 208 215 222 227 231 236 240 243 246 251 259 265 271 279 289 300 304 305 308 311 315 315 320 323 329 327 327 322 314 313 319
202 168 177 169 92 157 203 265 207 164 146 162 188 195 183 192 63 123 185 211 217 222 229 235 241 249 251 255 263 270 278 290 299 330 355 357 353 350 349 352 338 338 342 339 336 331 327 323 337
221 192 183 62 96 121 260 262 236 173 205 193 189 184 176 144 94 88 118 138 143 137 140 167 183 210 239 244 251 266 56 84 83 65 41 29 18 11 8 3 359 354 352 353 356 355 345 325 353
220 220 199 149 130 63 130 284 235 207 153 152 179 155 146 162 136 109 103 106 113 108 109 115 115 111 94 77 92 105 111 104 70 39 39 36 28 25 23 18 14 12 11 13 9 1 8 335 334
216 159 169 150 141 201 174 265 220 218 161 107 119 162 145 134 109 111 115 104 105 102 104 102 100 93 79 75 75 87 90 90 61 51 49 45 41 38 31 22 15 11 9 4 5 3 1 350 338
207 113 136 123 142 140 203 165 222 171 191 146 110 104 113 120 121 115 108 112 108 111 104 96 92 87 85 89 85 88 88 90 81 70 65 59 50 42 34 25 17 11 7 4 1 359 355 345 331
129 90 53 57 81 198 163 177 214 215 182 142 111 90 58 112 101 107 112 108 103 100 101 99 92 80 82 85 86 83 84 82 76 59 51 47 40 35 30 24 17 11 6 4 358 353 347 344 335
144 137 86 108 176 192 34 191 224 302 347 154 146 130 98 36 106 300 130 113 104 98 97 98 98 87 79 82 83 79 76 71 65 57 47 42 37 33 29 22 19 15 8 3 356 352 347 342 337
153 144 153 162 174 144 351 229 240 184 113 92 91 114 110 138 90 281 137 121 115 104 95 97 94 94 88 81 78 77 76 73 70 61 52 44 38 31 20 15 9 3 358 353 349 345 341 337 337
155 151 192 112 40 105 184 256 292 99 101 124 124 117 120 124 97 21 69 91 105 106 114 103 102 99 92 89 87 84 80 74 67 60 48 35 23 14 5 357 354 353 348 345 344 346 345 343 339
129 136 102 357 139 126 218 267 236 224 173 166 145 146 156 147 168 144 167 121 107 113 117 107 101 98 98 96 88 82 76 69 58 46 34 17 4 357 350 348 349 349 350 349 348 347 346 342 339
126 133 77 97 58 139 128 261 180 223 196 190 186 179 178 185 170 157 142 124 117 113 109 105 105 110 106 97 93 87 73 57 40 27 13 5 359 359 358 359 358 358 358 358 357 356 354 352 350
119 159 152 128 203 72 166 250 49 303 170 158 166 165 158 156 154 136 141 129 120 115 113 116 120 114 105 102 96 80 62 38 20 14 10 7 5 4 4 2 1 1 0 0 0 359 357 355 353